Tracking 22779 objects as of 12-Apr-2021
HD Live streaming from Space Station
objects crossing your sky now

STARLINK-1134

Track STARLINK-1134 now!
10-day predictions
STARLINK-1134 is classified as:


NORAD ID: 45048
Int'l Code: 2020-006E
Perigee: 553.7 km
Apogee: 555.0 km
Inclination: 53.1 °
Period: 95.6 minutes
Semi major axis: 6925 km
RCS: Unknown
Launch date: January 29, 2020
Source: United States (US)
Launch site: AIR FORCE EASTERN TEST RANGE (AFETR)
aabbcc
Your satellite tracking list
Your tracking list is empty




NASA's NSSDC Master Catalog

Two Line Element Set (TLE):
1 45048U 20006E   21101.89173074 -.00001227  00000-0 -63548-4 0  9997
2 45048  53.0568  54.7861 0000965  83.8297 276.2801 15.06394236 66241
Source of the keplerian elements: AFSPC